| time (UTC) | temp F | wind direction | speed MPH | gust MPH | rain 1hr in | rain 24hr in | rain mn in | humidity % | barometer mb |
| 20260905195828 | 83 | 248 | 18.0 | 20.0 | 0.00 | 0.00 | 0.00 | 20 | 1014.2 |
| 20260905195323 | 82 | 233 | 15.0 | 17.0 | 0.00 | 0.00 | 0.00 | 22 | 1014.5 |
| 20260905194820 | 83 | 272 | 5.0 | 7.0 | 0.00 | 0.00 | 0.00 | 21 | 1014.3 |
| 20260905194319 | 82 | 221 | 8.0 | 9.0 | 0.00 | 0.00 | 0.00 | 19 | 1014.2 |
| 20260905193818 | 83 | 245 | 12.0 | 20.0 | 0.00 | 0.00 | 0.00 | 20 | 1014.5 |
| 20260905193313 | 82 | 235 | 5.0 | 7.0 | 0.00 | 0.00 | 0.00 | 22 | 1014.5 |
| 20260905192808 | 82 | 224 | 13.0 | 17.0 | 0.00 | 0.00 | 0.00 | 23 | 1014.5 |
| 20260905192306 | 82 | 239 | 7.0 | 9.0 | 0.00 | 0.00 | 0.00 | 23 | 1014.8 |
| 20260905191804 | 82 | 235 | 17.0 | 21.0 | 0.00 | 0.00 | 0.00 | 23 | 1014.8 |
| 20260905191303 | 82 | 238 | 11.0 | 13.0 | 0.00 | 0.00 | 0.00 | 23 | 1014.7 |
| 20260905190801 | 82 | 248 | 14.0 | 17.0 | 0.00 | 0.00 | 0.00 | 23 | 1014.9 |
| 20260905190300 | 81 | 220 | 10.0 | 13.0 | 0.00 | 0.00 | 0.00 | 23 | 1014.8 |
| 20260905185800 | 81 | 213 | 13.0 | 16.0 | 0.00 | 0.00 | 0.00 | 22 | 1015.0 |
| 20260905185255 | 81 | 234 | 13.0 | 17.0 | 0.00 | 0.00 | 0.00 | 23 | 1015.0 |
| 20260905184754 | 82 | 260 | 12.0 | 13.0 | 0.00 | 0.00 | 0.00 | 23 | 1015.2 |
| 20260905184247 | 81 | 229 | 12.0 | 16.0 | 0.00 | 0.00 | 0.00 | 23 | 1015.0 |
| 20260905183741 | 81 | 221 | 10.0 | 11.0 | 0.00 | 0.00 | 0.00 | 24 | 1015.0 |
| 20260905183237 | 81 | 250 | 9.0 | 10.0 | 0.00 | 0.00 | 0.00 | 24 | 1015.0 |
| 20260905182737 | 81 | 264 | 7.0 | 7.0 | 0.00 | 0.00 | 0.00 | 23 | 1014.9 |
| 20260905182236 | 80 | 221 | 14.0 | 17.0 | 0.00 | 0.00 | 0.00 | 23 | 1014.9 |
| 20260905181731 | 81 | 248 | 8.0 | 9.0 | 0.00 | 0.00 | 0.00 | 23 | 1014.9 |
| 20260905181230 | 80 | 227 | 7.0 | 8.0 | 0.00 | 0.00 | 0.00 | 24 | 1014.8 |
| 20260905180726 | 80 | 241 | 12.0 | 14.0 | 0.00 | 0.00 | 0.00 | 24 | 1015.0 |
| 20260905180221 | 80 | 261 | 6.0 | 8.0 | 0.00 | 0.00 | 0.00 | 24 | 1015.2 |
| 20260905175721 | 81 | 228 | 9.0 | 11.0 | 0.00 | 0.00 | 0.00 | 24 | 1015.3 |
| 20260905175216 | 80 | 227 | 11.0 | 14.0 | 0.00 | 0.00 | 0.00 | 24 | 1014.9 |
| 20260905174711 | 81 | 203 | 8.0 | 10.0 | 0.00 | 0.00 | 0.00 | 24 | 1015.0 |
| 20260905174206 | 80 | 176 | 9.0 | 10.0 | 0.00 | 0.00 | 0.00 | 24 | 1015.2 |
| 20260905173702 | 80 | 207 | 3.0 | 3.0 | 0.00 | 0.00 | 0.00 | 27 | 1015.3 |
| 20260905173158 | 79 | 198 | 2.0 | 2.0 | 0.00 | 0.00 | 0.00 | 28 | 1015.2 |
| 20260905172657 | 78 | 224 | 2.0 | 3.0 | 0.00 | 0.00 | 0.00 | 27 | 1015.2 |
| 20260905172151 | 79 | 188 | 3.0 | 5.0 | 0.00 | 0.00 | 0.00 | 27 | 1014.9 |
| 20260905171647 | 78 | 138 | 5.0 | 6.0 | 0.00 | 0.00 | 0.00 | 27 | 1015.0 |
| 20260905171143 | 78 | 70 | 3.0 | 5.0 | 0.00 | 0.00 | 0.00 | 29 | 1014.8 |
| 20260905170641 | 77 | 183 | 4.0 | 5.0 | 0.00 | 0.00 | 0.00 | 28 | 1014.9 |
| 20260905170135 | 78 | 112 | 4.0 | 5.0 | 0.00 | 0.00 | 0.00 | 27 | 1015.0 |
| 20260905165635 | 78 | 179 | 3.0 | 5.0 | 0.00 | 0.00 | 0.00 | 27 | 1015.2 |
| 20260905165130 | 78 | 133 | 2.0 | 2.0 | 0.00 | 0.00 | 0.00 | 28 | 1014.9 |
| 20260905164625 | 77 | 157 | 3.0 | 3.0 | 0.00 | 0.00 | 0.00 | 28 | 1014.7 |
| 20260905164124 | 76 | 69 | 1.0 | 1.0 | 0.00 | 0.00 | 0.00 | 28 | 1015.0 |
| 20260905163621 | 77 | 146 | 1.0 | 1.0 | 0.00 | 0.00 | 0.00 | 27 | 1014.8 |
| 20260905163117 | 76 | 226 | 0.0 | 1.0 | 0.00 | 0.00 | 0.00 | 28 | 1014.8 |
| 20260905162613 | 75 | 113 | 1.0 | 2.0 | 0.00 | 0.00 | 0.00 | 28 | 1014.8 |
| 20260905162112 | 75 | 274 | 3.0 | 3.0 | 0.00 | 0.00 | 0.00 | 29 | 1014.9 |
| 20260905161612 | 75 | 135 | 1.0 | 1.0 | 0.00 | 0.00 | 0.00 | 30 | 1014.6 |
| 20260905161109 | 73 | 155 | 0.0 | 0.0 | 0.00 | 0.00 | 0.00 | 30 | 1014.8 |
| 20260905160609 | 74 | 291 | 1.0 | 1.0 | 0.00 | 0.00 | 0.00 | 30 | 1014.7 |
| 20260905155557 | 74 | 240 | 0.0 | 0.0 | 0.00 | 0.00 | 0.00 | 31 | 1014.9 |
| 20260905155056 | 73 | 235 | 1.0 | 2.0 | 0.00 | 0.00 | 0.00 | 32 | 1014.8 |
| 20260905154551 | 74 | 231 | 0.0 | 0.0 | 0.00 | 0.00 | 0.00 | 33 | 1014.8 |
| 20260905154046 | 71 | 228 | 0.0 | 0.0 | 0.00 | 0.00 | 0.00 | 34 | 1014.7 |
| 20260905153537 | 70 | 231 | 0.0 | 0.0 | 0.00 | 0.00 | 0.00 | 36 | 1014.9 |
| 20260905153036 | 69 | 230 | 0.0 | 0.0 | 0.00 | 0.00 | 0.00 | 39 | 1014.9 |
| 20260905152531 | 68 | 254 | 0.0 | 0.0 | 0.00 | 0.00 | 0.00 | 40 | 1014.8 |
| 20260905152027 | 68 | 256 | 1.0 | 1.0 | 0.00 | 0.00 | 0.00 | 39 | 1014.6 |
| 20260905151521 | 69 | 241 | 0.0 | 0.0 | 0.00 | 0.00 | 0.00 | 39 | 1014.7 |
| 20260905151016 | 68 | 203 | 0.0 | 0.0 | 0.00 | 0.00 | 0.00 | 41 | 1014.8 |
| 20260905150511 | 67 | 55 | 0.0 | 0.0 | 0.00 | 0.00 | 0.00 | 43 | 1014.7 |
| 20260905150009 | 66 | 163 | 0.0 | 1.0 | 0.00 | 0.00 | 0.00 | 43 | 1014.4 |
| 20260905145503 | 67 | 236 | 0.0 | 0.0 | 0.00 | 0.00 | 0.00 | 41 | 1014.5 |
| 20260905145003 | 65 | 329 | 0.0 | 0.0 | 0.00 | 0.00 | 0.00 | 43 | 1014.4 |
| 20260905144458 | 65 | 226 | 1.0 | 1.0 | 0.00 | 0.00 | 0.00 | 44 | 1014.6 |
| 20260905143957 | 65 | 177 | 0.0 | 0.0 | 0.00 | 0.00 | 0.00 | 43 | 1014.4 |
| 20260905143456 | 65 | 265 | 1.0 | 1.0 | 0.00 | 0.00 | 0.00 | 42 | 1014.6 |
| 20260905142951 | 65 | 257 | 0.0 | 0.0 | 0.00 | 0.00 | 0.00 | 42 | 1014.7 |
| 20260905142449 | 65 | 304 | 2.0 | 2.0 | 0.00 | 0.00 | 0.00 | 41 | 1014.4 |
| 20260905141945 | 64 | 241 | 0.0 | 0.0 | 0.00 | 0.00 | 0.00 | 42 | 1014.3 |
| 20260905141440 | 63 | 250 | 0.0 | 0.0 | 0.00 | 0.00 | 0.00 | 44 | 1014.1 |
| 20260905140936 | 63 | 246 | 0.0 | 0.0 | 0.00 | 0.00 | 0.00 | 44 | 1014.1 |
| 20260905140431 | 64 | 262 | 0.0 | 1.0 | 0.00 | 0.00 | 0.00 | 43 | 1014.1 |
| 20260905135930 | 64 | 230 | 4.0 | 5.0 | 0.00 | 0.00 | 0.00 | 42 | 1014.0 |
| 20260905135426 | 63 | 250 | 3.0 | 3.0 | 0.00 | 0.00 | 0.00 | 43 | 1014.1 |
| 20260905134921 | 63 | 260 | 4.0 | 5.0 | 0.00 | 0.00 | 0.00 | 43 | 1014.0 |
| 20260905134420 | 63 | 260 | 4.0 | 5.0 | 0.00 | 0.00 | 0.00 | 45 | 1013.8 |
| 20260905133915 | 62 | 255 | 5.0 | 6.0 | 0.00 | 0.00 | 0.00 | 45 | 1013.6 |
| 20260905133415 | 62 | 265 | 5.0 | 6.0 | 0.00 | 0.00 | 0.00 | 46 | 1013.6 |
| 20260905132914 | 63 | 254 | 4.0 | 5.0 | 0.00 | 0.00 | 0.00 | 46 | 1014.0 |
| 20260905132410 | 62 | 247 | 4.0 | 5.0 | 0.00 | 0.00 | 0.00 | 47 | 1013.9 |
| 20260905131904 | 62 | 266 | 5.0 | 5.0 | 0.00 | 0.00 | 0.00 | 48 | 1013.6 |
| 20260905131400 | 61 | 257 | 2.0 | 3.0 | 0.00 | 0.00 | 0.00 | 51 | 1013.6 |
| 20260905130855 | 61 | 227 | 1.0 | 1.0 | 0.00 | 0.00 | 0.00 | 52 | 1013.4 |
| 20260905130354 | 61 | 249 | 1.0 | 1.0 | 0.00 | 0.00 | 0.00 | 52 | 1013.4 |
| 20260905125849 | 62 | 248 | 3.0 | 3.0 | 0.00 | 0.00 | 0.00 | 51 | 1013.6 |
| 20260905125344 | 62 | 260 | 3.0 | 3.0 | 0.00 | 0.00 | 0.00 | 51 | 1013.4 |
| 20260905124840 | 62 | 246 | 3.0 | 3.0 | 0.00 | 0.00 | 0.00 | 52 | 1013.8 |
| 20260905124336 | 62 | 238 | 0.0 | 0.0 | 0.00 | 0.00 | 0.00 | 53 | 1013.9 |
| 20260905123836 | 62 | 256 | 0.0 | 0.0 | 0.00 | 0.00 | 0.00 | 52 | 1013.6 |
| 20260905123333 | 62 | 247 | 0.0 | 0.0 | 0.00 | 0.00 | 0.00 | 52 | 1013.4 |
| 20260905122833 | 62 | 222 | 0.0 | 0.0 | 0.00 | 0.00 | 0.00 | 53 | 1013.6 |
| 20260905122332 | 62 | 246 | 3.0 | 3.0 | 0.00 | 0.00 | 0.00 | 53 | 1013.5 |
| 20260905121827 | 62 | 263 | 3.0 | 3.0 | 0.00 | 0.00 | 0.00 | 53 | 1013.6 |
| 20260905121324 | 62 | 270 | 5.0 | 6.0 | 0.00 | 0.00 | 0.00 | 53 | 1013.4 |
| 20260905120823 | 63 | 259 | 2.0 | 2.0 | 0.00 | 0.00 | 0.00 | 52 | 1013.4 |
| 20260905120317 | 62 | 237 | 7.0 | 9.0 | 0.00 | 0.00 | 0.00 | 52 | 1013.6 |
| 20260905115812 | 62 | 264 | 4.0 | 5.0 | 0.00 | 0.00 | 0.00 | 54 | 1013.6 |
| 20260905115312 | 63 | 288 | 3.0 | 5.0 | 0.00 | 0.00 | 0.00 | 53 | 1013.5 |
| 20260905114812 | 62 | 284 | 5.0 | 6.0 | 0.00 | 0.00 | 0.00 | 53 | 1013.5 |
| 20260905114311 | 62 | 230 | 5.0 | 5.0 | 0.00 | 0.00 | 0.00 | 53 | 1013.4 |
| 20260905113810 | 62 | 265 | 3.0 | 3.0 | 0.00 | 0.00 | 0.00 | 53 | 1013.8 |
| 20260905113306 | 62 | 326 | 3.0 | 3.0 | 0.00 | 0.00 | 0.00 | 54 | 1013.8 |
| 20260905112801 | 62 | 273 | 4.0 | 5.0 | 0.00 | 0.00 | 0.00 | 56 | 1013.6 |
| 20260905112256 | 61 | 249 | 3.0 | 6.0 | 0.00 | 0.00 | 0.00 | 56 | 1013.9 |
| 20260905111750 | 61 | 265 | 1.0 | 1.0 | 0.00 | 0.00 | 0.00 | 55 | 1013.8 |
| 20260905111245 | 61 | 227 | 2.0 | 2.0 | 0.00 | 0.00 | 0.00 | 55 | 1013.9 |
| 20260905110745 | 62 | 253 | 3.0 | 3.0 | 0.00 | 0.00 | 0.00 | 53 | 1013.6 |
| 20260905110238 | 62 | 255 | 2.0 | 2.0 | 0.00 | 0.00 | 0.00 | 53 | 1013.6 |
| 20260905105734 | 62 | 264 | 1.0 | 1.0 | 0.00 | 0.00 | 0.00 | 52 | 1013.8 |
| 20260905105233 | 62 | 285 | 5.0 | 6.0 | 0.00 | 0.00 | 0.00 | 52 | 1013.5 |
| 20260905104728 | 62 | 310 | 3.0 | 5.0 | 0.00 | 0.00 | 0.00 | 52 | 1013.8 |
| 20260905104224 | 62 | 250 | 3.0 | 3.0 | 0.00 | 0.00 | 0.00 | 52 | 1013.6 |
| 20260905103719 | 62 | 255 | 3.0 | 3.0 | 0.00 | 0.00 | 0.00 | 52 | 1013.8 |
| 20260905103215 | 62 | 275 | 4.0 | 6.0 | 0.00 | 0.00 | 0.00 | 53 | 1013.5 |
| 20260905102711 | 61 | 287 | 3.0 | 3.0 | 0.00 | 0.00 | 0.00 | 55 | 1013.6 |
| 20260905102207 | 61 | 287 | 3.0 | 3.0 | 0.00 | 0.00 | 0.00 | 56 | 1013.8 |
| 20260905101706 | 61 | 257 | 3.0 | 3.0 | 0.00 | 0.00 | 0.00 | 56 | 1013.6 |
| 20260905101204 | 61 | 258 | 2.0 | 2.0 | 0.00 | 0.00 | 0.00 | 54 | 1013.5 |
| 20260905100701 | 60 | 272 | 4.0 | 5.0 | 0.00 | 0.00 | 0.00 | 55 | 1013.6 |
| 20260905100155 | 60 | 233 | 3.0 | 3.0 | 0.00 | 0.00 | 0.00 | 55 | 1013.3 |
| 20260905095654 | 60 | 246 | 3.0 | 3.0 | 0.00 | 0.00 | 0.00 | 56 | 1013.6 |
| 20260905095149 | 61 | 268 | 4.0 | 5.0 | 0.00 | 0.00 | 0.00 | 54 | 1013.6 |
| 20260905094644 | 61 | 277 | 3.0 | 3.0 | 0.00 | 0.00 | 0.00 | 54 | 1013.9 |
| 20260905094143 | 60 | 304 | 2.0 | 2.0 | 0.00 | 0.00 | 0.00 | 55 | 1013.8 |
| 20260905093638 | 60 | 256 | 2.0 | 2.0 | 0.00 | 0.00 | 0.00 | 55 | 1013.6 |
| 20260905093134 | 60 | 273 | 2.0 | 2.0 | 0.00 | 0.00 | 0.00 | 55 | 1013.8 |
| 20260905092629 | 60 | 255 | 2.0 | 2.0 | 0.00 | 0.00 | 0.00 | 54 | 1013.6 |
| 20260905092125 | 60 | 298 | 2.0 | 3.0 | 0.00 | 0.00 | 0.00 | 54 | 1013.9 |
| 20260905091623 | 61 | 259 | 1.0 | 2.0 | 0.00 | 0.00 | 0.00 | 55 | 1014.0 |
| 20260905091118 | 61 | 333 | 4.0 | 5.0 | 0.00 | 0.00 | 0.00 | 54 | 1013.8 |
| 20260905090618 | 61 | 337 | 4.0 | 5.0 | 0.00 | 0.00 | 0.00 | 55 | 1013.9 |
| 20260905090109 | 60 | 258 | 2.0 | 3.0 | 0.00 | 0.00 | 0.00 | 55 | 1013.9 |
| 20260905085606 | 61 | 271 | 2.0 | 2.0 | 0.00 | 0.00 | 0.00 | 55 | 1013.8 |
| 20260905085103 | 61 | 267 | 3.0 | 3.0 | 0.00 | 0.00 | 0.00 | 54 | 1014.0 |
| 20260905084601 | 61 | 262 | 2.0 | 2.0 | 0.00 | 0.00 | 0.00 | 54 | 1014.0 |
| 20260905084057 | 61 | 241 | 3.0 | 3.0 | 0.00 | 0.00 | 0.00 | 56 | 1014.2 |
| 20260905083551 | 61 | 254 | 2.0 | 2.0 | 0.00 | 0.00 | 0.00 | 56 | 1014.2 |
| 20260905083048 | 61 | 253 | 2.0 | 2.0 | 0.00 | 0.00 | 0.00 | 58 | 1014.0 |
| 20260905082543 | 61 | 262 | 2.0 | 2.0 | 0.00 | 0.00 | 0.00 | 57 | 1014.2 |
| 20260905082039 | 61 | 347 | 3.0 | 3.0 | 0.00 | 0.00 | 0.00 | 58 | 1014.2 |
| 20260905081538 | 61 | 286 | 1.0 | 1.0 | 0.00 | 0.00 | 0.00 | 59 | 1014.1 |
| 20260905081033 | 61 | 316 | 0.0 | 0.0 | 0.00 | 0.00 | 0.00 | 59 | 1014.2 |
| 20260905080532 | 61 | 266 | 0.0 | 0.0 | 0.00 | 0.00 | 0.00 | 59 | 1014.1 |
| 20260905080028 | 61 | 327 | 3.0 | 3.0 | 0.00 | 0.00 | 0.00 | 59 | 1014.2 |
| 20260905075527 | 61 | 266 | 1.0 | 1.0 | 0.00 | 0.00 | 0.00 | 58 | 1014.3 |
| 20260905075027 | 61 | 254 | 2.0 | 2.0 | 0.00 | 0.00 | 0.00 | 58 | 1014.2 |
| 20260905074521 | 61 | 302 | 3.0 | 3.0 | 0.00 | 0.00 | 0.00 | 57 | 1014.3 |
| 20260905074017 | 62 | 247 | 1.0 | 1.0 | 0.00 | 0.00 | 0.00 | 57 | 1014.2 |
| 20260905073512 | 62 | 218 | 2.0 | 2.0 | 0.00 | 0.00 | 0.00 | 53 | 1014.3 |
| 20260905073008 | 63 | 258 | 1.0 | 1.0 | 0.00 | 0.00 | 0.00 | 53 | 1014.3 |
| 20260905072507 | 63 | 256 | 1.0 | 1.0 | 0.00 | 0.00 | 0.00 | 52 | 1014.0 |
| 20260905072003 | 63 | 245 | 1.0 | 1.0 | 0.00 | 0.00 | 0.00 | 52 | 1014.2 |
| 20260905071500 | 63 | 258 | 1.0 | 1.0 | 0.00 | 0.00 | 0.00 | 54 | 1014.1 |
| 20260905071000 | 63 | 256 | 1.0 | 1.0 | 0.00 | 0.00 | 0.00 | 54 | 1014.2 |
| 20260905070450 | 63 | 266 | 0.0 | 0.0 | 0.00 | 0.00 | 0.00 | 55 | 1014.1 |
| 20260905065950 | 63 | 248 | 0.0 | 0.0 | 0.00 | 0.00 | 0.00 | 56 | 1014.0 |
| 20260905065448 | 63 | 269 | 0.0 | 0.0 | 0.00 | 0.00 | 0.00 | 57 | 1014.0 |
| 20260905064943 | 64 | 251 | 0.0 | 0.0 | 0.00 | 0.00 | 0.00 | 57 | 1014.0 |
| 20260905064444 | 64 | 263 | 0.0 | 0.0 | 0.00 | 0.00 | 0.00 | 57 | 1013.8 |
| 20260905063939 | 64 | 257 | 0.0 | 0.0 | 0.00 | 0.00 | 0.00 | 57 | 1014.0 |
| 20260905063433 | 64 | 249 | 1.0 | 1.0 | 0.00 | 0.00 | 0.00 | 58 | 1013.9 |
| 20260905062930 | 64 | 253 | 1.0 | 1.0 | 0.00 | 0.00 | 0.00 | 58 | 1014.0 |
| 20260905062424 | 65 | 243 | 1.0 | 1.0 | 0.00 | 0.00 | 0.00 | 57 | 1014.1 |
| 20260905061919 | 64 | 249 | 3.0 | 3.0 | 0.00 | 0.00 | 0.00 | 59 | 1013.8 |
| 20260905061419 | 65 | 272 | 3.0 | 3.0 | 0.00 | 0.00 | 0.00 | 58 | 1013.9 |
| 20260905060918 | 65 | 267 | 2.0 | 2.0 | 0.00 | 0.00 | 0.00 | 58 | 1014.1 |
| 20260905060415 | 65 | 255 | 0.0 | 0.0 | 0.00 | 0.00 | 0.00 | 57 | 1014.3 |
| 20260905055914 | 66 | 246 | 1.0 | 1.0 | 0.00 | 0.00 | 0.00 | 57 | 1014.1 |
| 20260905055409 | 66 | 258 | 3.0 | 3.0 | 0.00 | 0.00 | 0.00 | 55 | 1014.1 |
| 20260905054908 | 65 | 334 | 5.0 | 6.0 | 0.00 | 0.00 | 0.00 | 57 | 1013.9 |
| 20260905054404 | 65 | 248 | 1.0 | 2.0 | 0.00 | 0.00 | 0.00 | 58 | 1013.9 |
| 20260905053904 | 66 | 252 | 3.0 | 3.0 | 0.00 | 0.00 | 0.00 | 58 | 1014.1 |
| 20260905053359 | 66 | 265 | 3.0 | 3.0 | 0.00 | 0.00 | 0.00 | 57 | 1014.0 |
| 20260905052855 | 66 | 255 | 2.0 | 2.0 | 0.00 | 0.00 | 0.00 | 57 | 1014.0 |
| 20260905052354 | 65 | 243 | 3.0 | 3.0 | 0.00 | 0.00 | 0.00 | 57 | 1014.1 |
| 20260905051854 | 65 | 253 | 2.0 | 2.0 | 0.00 | 0.00 | 0.00 | 57 | 1014.2 |
| 20260905051349 | 65 | 253 | 2.0 | 2.0 | 0.00 | 0.00 | 0.00 | 57 | 1014.2 |
| 20260905050847 | 65 | 287 | 2.0 | 2.0 | 0.00 | 0.00 | 0.00 | 57 | 1014.0 |
| 20260905050342 | 66 | 269 | 2.0 | 2.0 | 0.00 | 0.00 | 0.00 | 57 | 1014.0 |
| 20260905045837 | 66 | 264 | 2.0 | 2.0 | 0.00 | 0.00 | 0.00 | 56 | 1014.0 |
| 20260905045332 | 66 | 249 | 1.0 | 1.0 | 0.00 | 0.00 | 0.00 | 57 | 1014.1 |
| 20260905044827 | 67 | 276 | 4.0 | 5.0 | 0.00 | 0.00 | 0.00 | 56 | 1013.9 |
| 20260905044323 | 67 | 283 | 2.0 | 2.0 | 0.00 | 0.00 | 0.00 | 56 | 1013.8 |
| 20260905043823 | 67 | 300 | 4.0 | 5.0 | 0.00 | 0.00 | 0.00 | 56 | 1014.0 |
| 20260905043316 | 67 | 263 | 3.0 | 3.0 | 0.00 | 0.00 | 0.00 | 56 | 1013.8 |
| 20260905042811 | 67 | 273 | 4.0 | 5.0 | 0.00 | 0.00 | 0.00 | 56 | 1013.8 |
| 20260905042311 | 67 | 248 | 1.0 | 2.0 | 0.00 | 0.00 | 0.00 | 55 | 1013.5 |
| 20260905041805 | 67 | 236 | 2.0 | 2.0 | 0.00 | 0.00 | 0.00 | 56 | 1013.4 |
| 20260905041302 | 67 | 266 | 2.0 | 2.0 | 0.00 | 0.00 | 0.00 | 56 | 1013.8 |
| 20260905040756 | 67 | 286 | 2.0 | 3.0 | 0.00 | 0.00 | 0.00 | 58 | 1013.6 |
| 20260905040255 | 68 | 257 | 2.0 | 2.0 | 0.00 | 0.00 | 0.00 | 57 | 1013.5 |
| 20260905035750 | 68 | 324 | 0.0 | 0.0 | 0.00 | 0.00 | 0.00 | 56 | 1013.5 |
| 20260905035246 | 68 | 264 | 3.0 | 3.0 | 0.00 | 0.00 | 0.00 | 56 | 1013.2 |
| 20260905034743 | 68 | 256 | 3.0 | 3.0 | 0.00 | 0.00 | 0.00 | 57 | 1013.1 |
| 20260905034242 | 68 | 252 | 3.0 | 5.0 | 0.00 | 0.00 | 0.00 | 57 | 1013.0 |
| 20260905033741 | 68 | 271 | 3.0 | 3.0 | 0.00 | 0.00 | 0.00 | 58 | 1013.1 |
| 20260905033237 | 69 | 276 | 2.0 | 3.0 | 0.00 | 0.00 | 0.00 | 58 | 1013.4 |
| 20260905032736 | 69 | 282 | 5.0 | 6.0 | 0.00 | 0.00 | 0.00 | 58 | 1013.3 |
| 20260905032232 | 69 | 311 | 4.0 | 6.0 | 0.00 | 0.00 | 0.00 | 57 | 1013.2 |
| 20260905031727 | 70 | 287 | 6.0 | 8.0 | 0.00 | 0.00 | 0.00 | 55 | 1013.1 |
| 20260905031223 | 70 | 278 | 4.0 | 6.0 | 0.00 | 0.00 | 0.00 | 52 | 1012.9 |
| 20260905030717 | 71 | 239 | 5.0 | 6.0 | 0.00 | 0.00 | 0.00 | 48 | 1012.8 |
| 20260905030212 | 71 | 302 | 4.0 | 5.0 | 0.00 | 0.00 | 0.00 | 46 | 1012.7 |
| 20260905025708 | 71 | 246 | 0.0 | 0.0 | 0.00 | 0.00 | 0.00 | 44 | 1012.4 |
| 20260905025203 | 72 | 351 | 7.0 | 8.0 | 0.00 | 0.00 | 0.00 | 39 | 1012.6 |
| 20260905024658 | 72 | 34 | 5.0 | 6.0 | 0.00 | 0.00 | 0.00 | 39 | 1012.5 |
| 20260905024154 | 72 | 258 | 4.0 | 5.0 | 0.00 | 0.00 | 0.00 | 37 | 1012.2 |
| 20260905023649 | 72 | 84 | 5.0 | 6.0 | 0.00 | 0.00 | 0.00 | 35 | 1012.2 |
| 20260905023149 | 73 | 234 | 1.0 | 2.0 | 0.00 | 0.00 | 0.00 | 34 | 1012.5 |
| 20260905022648 | 73 | 48 | 7.0 | 8.0 | 0.00 | 0.00 | 0.00 | 34 | 1012.1 |
| 20260905022143 | 73 | 248 | 2.0 | 3.0 | 0.00 | 0.00 | 0.00 | 34 | 1012.7 |
| 20260905021643 | 73 | 141 | 6.0 | 9.0 | 0.00 | 0.00 | 0.00 | 34 | 1012.6 |
| 20260905021139 | 74 | 96 | 5.0 | 7.0 | 0.00 | 0.00 | 0.00 | 33 | 1012.5 |
| 20260905020633 | 74 | 79 | 3.0 | 5.0 | 0.00 | 0.00 | 0.00 | 34 | 1012.1 |
| 20260905020128 | 74 | 284 | 4.0 | 7.0 | 0.00 | 0.00 | 0.00 | 33 | 1012.1 |
| 20260905015626 | 75 | 153 | 9.0 | 11.0 | 0.00 | 0.00 | 0.00 | 32 | 1012.2 |
| 20260905015121 | 75 | 60 | 2.0 | 2.0 | 0.00 | 0.00 | 0.00 | 32 | 1012.2 |
| 20260905014615 | 75 | 191 | 8.0 | 10.0 | 0.00 | 0.00 | 0.00 | 32 | 1011.9 |
| 20260905014111 | 75 | 194 | 8.0 | 11.0 | 0.00 | 0.00 | 0.00 | 33 | 1011.8 |
| 20260905013608 | 75 | 206 | 8.0 | 10.0 | 0.00 | 0.00 | 0.00 | 34 | 1011.8 |
| 20260905013103 | 75 | 229 | 8.0 | 10.0 | 0.00 | 0.00 | 0.00 | 34 | 1012.0 |
| 20260905012602 | 75 | 232 | 9.0 | 13.0 | 0.00 | 0.00 | 0.00 | 35 | 1011.8 |
| 20260905012100 | 76 | 223 | 15.0 | 17.0 | 0.00 | 0.00 | 0.00 | 34 | 1011.8 |
| 20260905011555 | 76 | 255 | 9.0 | 10.0 | 0.00 | 0.00 | 0.00 | 34 | 1011.6 |
| 20260905011050 | 76 | 238 | 20.0 | 25.0 | 0.00 | 0.00 | 0.00 | 34 | 1011.8 |
| 20260905010545 | 77 | 225 | 18.0 | 22.0 | 0.00 | 0.00 | 0.00 | 34 | 1011.7 |
| 20260905010041 | 77 | 237 | 11.0 | 17.0 | 0.00 | 0.00 | 0.00 | 34 | 1011.7 |
| 20260905005536 | 76 | 251 | 19.0 | 24.0 | 0.00 | 0.00 | 0.00 | 35 | 1011.4 |
| 20260905005032 | 77 | 232 | 19.0 | 23.0 | 0.00 | 0.00 | 0.00 | 33 | 1011.4 |
| 20260905004526 | 77 | 253 | 22.0 | 27.0 | 0.00 | 0.00 | 0.00 | 35 | 1011.2 |
| 20260905004021 | 77 | 255 | 26.0 | 29.0 | 0.00 | 0.00 | 0.00 | 36 | 1011.4 |
| 20260905003517 | 77 | 236 | 18.0 | 22.0 | 0.00 | 0.00 | 0.00 | 35 | 1011.5 |
| 20260905003013 | 77 | 237 | 26.0 | 33.0 | 0.00 | 0.00 | 0.00 | 34 | 1011.1 |
| 20260905002508 | 77 | 264 | 24.0 | 26.0 | 0.00 | 0.00 | 0.00 | 37 | 1011.4 |
| 20260905002002 | 77 | 250 | 25.0 | 29.0 | 0.00 | 0.00 | 0.00 | 36 | 1011.2 |
| 20260905001457 | 77 | 250 | 17.0 | 20.0 | 0.00 | 0.00 | 0.00 | 36 | 1011.0 |
| 20260905000951 | 78 | 234 | 23.0 | 31.0 | 0.00 | 0.00 | 0.00 | 36 | 1011.2 |
| 20260905000447 | 78 | 204 | 16.0 | 20.0 | 0.00 | 0.00 | 0.00 | 36 | 1010.9 |
| 20260904235943 | 78 | 266 | 16.0 | 21.0 | 0.00 | 0.00 | 0.00 | 37 | 1011.0 |
| 20260904235438 | 78 | 229 | 28.0 | 35.0 | 0.00 | 0.00 | 0.00 | 35 | 1011.0 |
| 20260904234938 | 78 | 265 | 21.0 | 25.0 | 0.00 | 0.00 | 0.00 | 35 | 1011.2 |
| 20260904234438 | 78 | 253 | 26.0 | 33.0 | 0.00 | 0.00 | 0.00 | 36 | 1011.1 |
| 20260904233934 | 79 | 243 | 13.0 | 15.0 | 0.00 | 0.00 | 0.00 | 34 | 1011.0 |
| 20260904233429 | 79 | 245 | 20.0 | 23.0 | 0.00 | 0.00 | 0.00 | 35 | 1010.6 |
| 20260904232925 | 79 | 247 | 17.0 | 23.0 | 0.00 | 0.00 | 0.00 | 34 | 1011.1 |
| 20260904232421 | 79 | 247 | 14.0 | 18.0 | 0.00 | 0.00 | 0.00 | 33 | 1011.0 |
| 20260904231918 | 80 | 222 | 13.0 | 17.0 | 0.00 | 0.00 | 0.00 | 32 | 1011.0 |
| 20260904231413 | 79 | 231 | 20.0 | 26.0 | 0.00 | 0.00 | 0.00 | 31 | 1010.7 |
| 20260904230908 | 80 | 211 | 27.0 | 33.0 | 0.00 | 0.00 | 0.00 | 32 | 1011.1 |
| 20260904230406 | 79 | 216 | 19.0 | 30.0 | 0.00 | 0.00 | 0.00 | 32 | 1011.1 |
| 20260904225902 | 80 | 253 | 15.0 | 17.0 | 0.00 | 0.00 | 0.00 | 30 | 1011.3 |
| 20260904225400 | 80 | 225 | 20.0 | 33.0 | 0.00 | 0.00 | 0.00 | 28 | 1011.0 |
| 20260904224859 | 80 | 232 | 12.0 | 14.0 | 0.00 | 0.00 | 0.00 | 29 | 1010.9 |
| 20260904224355 | 80 | 242 | 19.0 | 22.0 | 0.00 | 0.00 | 0.00 | 29 | 1011.0 |
| 20260904223855 | 80 | 270 | 15.0 | 20.0 | 0.00 | 0.00 | 0.00 | 30 | 1010.9 |
| 20260904223354 | 80 | 212 | 17.0 | 24.0 | 0.00 | 0.00 | 0.00 | 32 | 1011.1 |
| 20260904222851 | 79 | 218 | 17.0 | 23.0 | 0.00 | 0.00 | 0.00 | 32 | 1010.9 |
| 20260904222351 | 80 | 265 | 17.0 | 20.0 | 0.00 | 0.00 | 0.00 | 31 | 1011.1 |
| 20260904221850 | 79 | 271 | 21.0 | 25.0 | 0.00 | 0.00 | 0.00 | 31 | 1011.1 |
| 20260904221346 | 80 | 263 | 20.0 | 26.0 | 0.00 | 0.00 | 0.00 | 33 | 1011.2 |
| 20260904220841 | 80 | 247 | 20.0 | 23.0 | 0.00 | 0.00 | 0.00 | 32 | 1011.5 |
| 20260904220340 | 80 | 242 | 15.0 | 17.0 | 0.00 | 0.00 | 0.00 | 33 | 1011.2 |
| 20260904215835 | 80 | 261 | 13.0 | 16.0 | 0.00 | 0.00 | 0.00 | 32 | 1011.4 |
| 20260904215331 | 80 | 255 | 22.0 | 29.0 | 0.00 | 0.00 | 0.00 | 32 | 1011.6 |
| 20260904214827 | 81 | 246 | 15.0 | 17.0 | 0.00 | 0.00 | 0.00 | 31 | 1011.5 |
| 20260904214322 | 81 | 196 | 4.0 | 5.0 | 0.00 | 0.00 | 0.00 | 31 | 1011.7 |
| 20260904213820 | 80 | 217 | 14.0 | 15.0 | 0.00 | 0.00 | 0.00 | 32 | 1011.8 |
| 20260904213316 | 80 | 230 | 19.0 | 24.0 | 0.00 | 0.00 | 0.00 | 30 | 1011.6 |
| 20260904212812 | 80 | 256 | 9.0 | 11.0 | 0.00 | 0.00 | 0.00 | 31 | 1011.7 |
| 20260904212312 | 80 | 189 | 12.0 | 18.0 | 0.00 | 0.00 | 0.00 | 31 | 1011.7 |
| 20260904211807 | 81 | 199 | 4.0 | 11.0 | 0.00 | 0.00 | 0.00 | 31 | 1011.7 |
| 20260904211302 | 80 | 250 | 14.0 | 15.0 | 0.00 | 0.00 | 0.00 | 31 | 1011.6 |
| 20260904210757 | 81 | 222 | 4.0 | 6.0 | 0.00 | 0.00 | 0.00 | 31 | 1012.0 |
| 20260904210256 | 80 | 344 | 3.0 | 5.0 | 0.00 | 0.00 | 0.00 | 31 | 1012.1 |
| 20260904205753 | 79 | 209 | 12.0 | 13.0 | 0.00 | 0.00 | 0.00 | 30 | 1011.9 |
| 20260904205248 | 80 | 265 | 12.0 | 14.0 | 0.00 | 0.00 | 0.00 | 32 | 1012.1 |
| 20260904204745 | 80 | 182 | 8.0 | 10.0 | 0.00 | 0.00 | 0.00 | 31 | 1012.1 |
| 20260904204241 | 80 | 279 | 9.0 | 11.0 | 0.00 | 0.00 | 0.00 | 30 | 1012.1 |
| 20260904203737 | 80 | 290 | 12.0 | 15.0 | 0.00 | 0.00 | 0.00 | 31 | 1012.2 |
| 20260904203233 | 80 | 265 | 16.0 | 20.0 | 0.00 | 0.00 | 0.00 | 30 | 1012.2 |
| 20260904202729 | 80 | 313 | 7.0 | 10.0 | 0.00 | 0.00 | 0.00 | 30 | 1012.6 |
| 20260904202225 | 79 | 227 | 4.0 | 6.0 | 0.00 | 0.00 | 0.00 | 29 | 1012.5 |
| 20260904201720 | 80 | 287 | 7.0 | 9.0 | 0.00 | 0.00 | 0.00 | 30 | 1012.5 |
| 20260904201220 | 80 | 235 | 5.0 | 6.0 | 0.00 | 0.00 | 0.00 | 30 | 1012.7 |
| 20260904200714 | 79 | 258 | 8.0 | 10.0 | 0.00 | 0.00 | 0.00 | 29 | 1012.7 |
| 20260904200209 | 79 | 223 | 8.0 | 10.0 | 0.00 | 0.00 | 0.00 | 30 | 1012.6 |